Location: Hylvaty SDH
(49.9612°N, 16.4057°E)
Time: 11:51:09
(UTC+01:00)

A-11 Canister half - Pass Details

Date: 10 October 2020
Orbit: 1526 x 1683 km, 47.3° (Epoch: 28 October)

Event Time Altitude Azimuth Distance (km) Brightness Sun altitude
Rises 01:12:13 0° 282° (WNW) 4,682 11.6 -46.3°
Enters shadow 01:12:43 - 282° (WNW) 4,522 11.5 -46.3°
Reaches altitude 10° 01:15:17 10° 279° (W) 3,705 - -46.2°
Maximum altitude 01:24:23 60° 203° (SSW) 1,747 - -45.8°
Drops below altitude 10° 01:33:43 10° 127° (SE) 3,791 - -45.4°
Sets 01:36:53 0° 124° (SE) 4,796 - -45.2°
